Wisconsin Dells, Wisconsin, United States (53965)
Lat: 43.63N, Lon: 89.77W
Wx Zone: WIZ057
Local Info
Past Weather Observations for Sunday, September 14, 2014

NOTE: This archive is for the closest National Weather Service station to Wisconsin Dells. Information may differ from the station used for current weather conditions.

Click here for Long-term Archive

Time Weather Temperature Dewpoint Humidity Pressure Winds Precip Visibility
23:55
Mostly Cloudy
55°F / 13°C 46°F / 8°C 72% 30.15 in
(1021 mb)
Calm - 10SM
23:35
Partly Cloudy
55°F / 13°C 46°F / 8°C 72% 30.15 in
(1021 mb)
Calm - 10SM
23:15
Partly Cloudy
55°F / 13°C 46°F / 8°C 72% 30.15 in
(1021 mb)
SSW 3.5 mph
(SSW 6 kph)
- 10SM
22:55
Mostly Cloudy
55°F / 13°C 46°F / 8°C 72% 30.12 in
(1020 mb)
W 5.8 mph
(W 9 kph)
- 10SM
22:35
Clear
57°F / 14°C 46°F / 8°C 67% 30.12 in
(1020 mb)
WNW 4.6 mph
(WNW 7 kph)
- 10SM
22:15
Clear
57°F / 14°C 46°F / 8°C 67% 30.12 in
(1020 mb)
SW 9.2 mph
(SW 15 kph)
- 10SM
21:55
Partly Cloudy
57°F / 14°C 46°F / 8°C 67% 30.12 in
(1020 mb)
SW 10.4 mph
(SW 17 kph)
- 10SM
21:35
Clear
57°F / 14°C 46°F / 8°C 67% 30.12 in
(1020 mb)
SW 9.2 mph
(SW 15 kph)
- 10SM
21:15
Clear
57°F / 14°C 46°F / 8°C 67% 30.12 in
(1020 mb)
SW 9.2 mph
(SW 15 kph)
- 10SM
20:55
Partly Cloudy
57°F / 14°C 46°F / 8°C 67% 30.12 in
(1020 mb)
SW 8.1 mph
(SW 13 kph)
- 10SM
20:35
Partly Cloudy
55°F / 13°C 46°F / 8°C 72% 30.12 in
(1020 mb)
SW 5.8 mph
(SW 9 kph)
- 10SM
20:15
Partly Cloudy
55°F / 13°C 46°F / 8°C 72% 30.12 in
(1020 mb)
SW 6.9 mph
(SW 11 kph)
- 10SM
19:55
Clear
55°F / 13°C 46°F / 8°C 72% 30.12 in
(1020 mb)
SW 8.1 mph
(SW 13 kph)
- 10SM
19:35
Clear
57°F / 14°C 46°F / 8°C 67% 30.12 in
(1020 mb)
SW 6.9 mph
(SW 11 kph)
- 10SM
19:15
Clear
57°F / 14°C 46°F / 8°C 67% 30.12 in
(1020 mb)
SW 9.2 mph
(SW 15 kph)
- 10SM
18:55
Clear
57°F / 14°C 46°F / 8°C 67% 30.12 in
(1020 mb)
SSE 8.1 mph
(SSE 13 kph)
- 10SM
18:35
Clear
57°F / 14°C 46°F / 8°C 67% 30.12 in
(1020 mb)
SSE 6.9 mph
(SSE 11 kph)
- 10SM
18:15
Clear
59°F / 15°C 46°F / 8°C 63% 30.12 in
(1020 mb)
SSE 6.9 mph
(SSE 11 kph)
- 10SM
17:55
Clear
61°F / 16°C 46°F / 8°C 59% 30.12 in
(1020 mb)
SW 6.9 mph
(SW 11 kph)
- 10SM
17:35
Clear
61°F / 16°C 46°F / 8°C 59% 30.12 in
(1020 mb)
SW 8.1 mph
(SW 13 kph)
- 10SM
17:15
Clear
63°F / 17°C 45°F / 7°C 52% 30.12 in
(1020 mb)
SW 8.1 mph
(SW 13 kph)
- 10SM
16:55
Clear
64°F / 18°C 45°F / 7°C 49% 30.12 in
(1020 mb)
SW 8.1 mph
(SW 13 kph)
- 10SM
16:35
Partly Cloudy
64°F / 18°C 45°F / 7°C 49% 30.12 in
(1020 mb)
SW 13.8 mph
(SW 22 kph)
- 10SM
16:15
Partly Cloudy
64°F / 18°C 45°F / 7°C 49% 30.12 in
(1020 mb)
SW 11.5 mph
(SW 19 kph)
- 10SM
15:55
Partly Cloudy
66°F / 19°C 45°F / 7°C 46% 30.12 in
(1020 mb)
SW 12.7 mph
(SW 20 kph)
- 10SM
15:35
Partly Cloudy
66°F / 19°C 45°F / 7°C 46% 30.12 in
(1020 mb)
SW 12.7 mph
(SW 20 kph)
- 10SM
15:15
Partly Cloudy
66°F / 19°C 45°F / 7°C 46% 30.12 in
(1020 mb)
SSW 15 mph
(SSW 24 kph)
- 10SM
14:55
Partly Cloudy
66°F / 19°C 45°F / 7°C 46% 30.12 in
(1020 mb)
SSW 12.7 mph
(SSW 20 kph)
- 10SM
14:35
Partly Cloudy
66°F / 19°C 43°F / 6°C 43% 30.12 in
(1020 mb)
SSW 11.5 mph
(SSW 19 kph)
- 10SM
14:15
Partly Cloudy
66°F / 19°C 45°F / 7°C 46% 30.12 in
(1020 mb)
SW 16.1 mph
(SW 26 kph)
- 10SM
13:55
Partly Cloudy
66°F / 19°C 43°F / 6°C 43% 30.12 in
(1020 mb)
SSW 16.1 mph
(SSW 26 kph)
- 10SM
13:35
Partly Cloudy
64°F / 18°C 43°F / 6°C 46% 30.15 in
(1021 mb)
SW 15 mph
(SW 24 kph)
- 10SM
13:15
Partly Cloudy
66°F / 19°C 43°F / 6°C 43% 30.15 in
(1021 mb)
SW 13.8 mph
(SW 22 kph)
- 10SM
12:55
Partly Cloudy
64°F / 18°C 43°F / 6°C 46% 30.15 in
(1021 mb)
SSW 18.4 mph
(SSW 30 kph)
- 10SM
12:35
Clear
64°F / 18°C 43°F / 6°C 46% 30.15 in
(1021 mb)
SW 15 mph
(SW 24 kph)
- 10SM
12:15
Clear
64°F / 18°C 41°F / 5°C 43% 30.18 in
(1022 mb)
SW 13.8 mph
(SW 22 kph)
- 10SM
11:55
Clear
64°F / 18°C 41°F / 5°C 43% 30.18 in
(1022 mb)
SSW 12.7 mph
(SSW 20 kph)
- 10SM
11:35
Clear
63°F / 17°C 41°F / 5°C 45% 30.18 in
(1022 mb)
SW 15 mph
(SW 24 kph)
- 10SM
11:15
Clear
63°F / 17°C 41°F / 5°C 45% 30.18 in
(1022 mb)
SW 17.3 mph
(SW 28 kph)
- 10SM
10:55
Clear
61°F / 16°C 41°F / 5°C 48% 30.21 in
(1023 mb)
SW 17.3 mph
(SW 28 kph)
- 10SM
10:35
Clear
61°F / 16°C 41°F / 5°C 48% 30.21 in
(1023 mb)
SW 12.7 mph
(SW 20 kph)
- 10SM
10:15
Clear
59°F / 15°C 41°F / 5°C 51% 30.21 in
(1023 mb)
SW 12.7 mph
(SW 20 kph)
- 10SM
09:55
Clear
57°F / 14°C 39°F / 4°C 51% 30.21 in
(1023 mb)
SW 19.6 mph
(SW 32 kph)
- 10SM
09:35
Partly Cloudy
57°F / 14°C 41°F / 5°C 55% 30.24 in
(1024 mb)
SW 12.7 mph
(SW 20 kph)
- 10SM
09:15
Partly Cloudy
55°F / 13°C 39°F / 4°C 55% 30.24 in
(1024 mb)
SW 13.8 mph
(SW 22 kph)
- 10SM
08:55
Mostly Cloudy
54°F / 12°C 39°F / 4°C 58% 30.24 in
(1024 mb)
SW 13.8 mph
(SW 22 kph)
- 10SM
08:35
Overcast
52°F / 11°C 39°F / 4°C 62% 30.24 in
(1024 mb)
SSE 9.2 mph
(SSE 15 kph)
- 10SM
08:15
Overcast
50°F / 10°C 41°F / 5°C 71% 30.24 in
(1024 mb)
SSE 6.9 mph
(SSE 11 kph)
- 10SM
07:55
Overcast
50°F / 10°C 39°F / 4°C 67% 30.24 in
(1024 mb)
SSE 5.8 mph
(SSE 9 kph)
- 10SM
07:35
Overcast
48°F / 9°C 39°F / 4°C 71% 30.24 in
(1024 mb)
SSE 8.1 mph
(SSE 13 kph)
- 10SM
07:15
Overcast
48°F / 9°C 39°F / 4°C 71% 30.27 in
(1025 mb)
S 8.1 mph
(S 13 kph)
- 10SM
06:55
Overcast
46°F / 8°C 39°F / 4°C 76% 30.27 in
(1025 mb)
SSE 6.9 mph
(SSE 11 kph)
- 10SM
06:35
Overcast
46°F / 8°C 37°F / 3°C 71% 30.27 in
(1025 mb)
SW 9.2 mph
(SW 15 kph)
- 10SM
06:15
Overcast
45°F / 7°C 39°F / 4°C 81% 30.24 in
(1024 mb)
S 6.9 mph
(S 11 kph)
- 10SM
05:55
Mostly Cloudy
45°F / 7°C 37°F / 3°C 76% 30.24 in
(1024 mb)
SSE 6.9 mph
(SSE 11 kph)
- 10SM
05:35
Partly Cloudy
43°F / 6°C 37°F / 3°C 81% 30.24 in
(1024 mb)
S 6.9 mph
(S 11 kph)
- 10SM
05:15
Mostly Cloudy
43°F / 6°C 37°F / 3°C 81% 30.24 in
(1024 mb)
S 8.1 mph
(S 13 kph)
- 10SM
04:55
Overcast
45°F / 7°C 39°F / 4°C 81% 30.27 in
(1025 mb)
S 6.9 mph
(S 11 kph)
- 10SM
04:35
Overcast
43°F / 6°C 37°F / 3°C 81% 30.27 in
(1025 mb)
S 5.8 mph
(S 9 kph)
- 10SM
04:15
Partly Cloudy
41°F / 5°C 37°F / 3°C 87% 30.27 in
(1025 mb)
SSE 4.6 mph
(SSE 7 kph)
- 10SM
03:55
Clear
41°F / 5°C 37°F / 3°C 87% 30.27 in
(1025 mb)
S 5.8 mph
(S 9 kph)
- 10SM
03:35
Clear
41°F / 5°C 37°F / 3°C 87% 30.27 in
(1025 mb)
S 6.9 mph
(S 11 kph)
- 10SM
03:15
Clear
41°F / 5°C 37°F / 3°C 87% 30.27 in
(1025 mb)
SSE 4.6 mph
(SSE 7 kph)
- 10SM
02:55
Clear
41°F / 5°C 37°F / 3°C 87% 30.27 in
(1025 mb)
S 6.9 mph
(S 11 kph)
- 10SM
02:35
Partly Cloudy
43°F / 6°C 37°F / 3°C 81% 30.27 in
(1025 mb)
S 6.9 mph
(S 11 kph)
- 10SM
02:15
Mostly Cloudy
43°F / 6°C 39°F / 4°C 87% 30.27 in
(1025 mb)
S 6.9 mph
(S 11 kph)
- 10SM
01:55
Mostly Cloudy
43°F / 6°C 39°F / 4°C 87% 30.27 in
(1025 mb)
S 6.9 mph
(S 11 kph)
- 10SM
01:35
Overcast
45°F / 7°C 41°F / 5°C 87% 30.27 in
(1025 mb)
S 4.6 mph
(S 7 kph)
- 10SM
01:15
Overcast
45°F / 7°C 39°F / 4°C 81% 30.3 in
(1026 mb)
S 6.9 mph
(S 11 kph)
- 10SM
00:55
Overcast
43°F / 6°C 41°F / 5°C 93% 30.3 in
(1026 mb)
S 5.8 mph
(S 9 kph)
- 10SM
00:35
Mostly Cloudy
43°F / 6°C 39°F / 4°C 87% 30.3 in
(1026 mb)
S 4.6 mph
(S 7 kph)
- 10SM
00:15
Overcast
43°F / 6°C 39°F / 4°C 87% 30.3 in
(1026 mb)
S 4.6 mph
(S 7 kph)
- 10SM
Time Weather Temperature Dewpoint Humidity Pressure Winds Precip Visibility


Weather for websites

WeatherForYou.com, LLC is not responsible for any damages or problems caused by this service. Current weather conditions are obtained from the closest station including government and personal stations which may have varying degrees of accuracy. Weather forecasts are derived from the NOAA NDFD. Like all things, this site belongs to Jesus Christ... He just trusts me to maintain it. If you have any questions or comments email webmaster@weatherforyou.com

Copyright © 2014, WeatherForYou.com LLC. All rights reserved.